Location: Observatoire
(46.1952°N, 5.3391°E)
Time: 09:15:34
(UTC+01:00)

Courier 1B - Visible Passes

Search period start: 16 February 2026 00:00
Search period end: 26 February 2026 00:00
Orbit: 962 x 1208 km, 28.3° (Epoch: 15 February)

Date Brightness Start Highest point End Pass type
(mag) Time Alt. Az. Time Alt. Az. Time Alt. Az.
16 Feb 9.8 19:55:43 10° SSE 19:56:04 10° SSE 19:56:25 10° SSE visible
16 Feb 10.1 21:43:58 10° SSW 21:44:07 10° SSW 21:44:07 10° SSW visible
17 Feb 9.6 20:50:47 10° SSW 20:53:42 16° S 20:53:42 16° S visible
18 Feb 9.6 19:57:56 10° SSW 20:01:31 14° SSE 20:03:16 13° SSE visible
18 Feb 10.0 21:49:19 10° SW 21:50:10 12° SW 21:50:10 12° SW visible
19 Feb 9.7 19:05:46 10° S 19:07:55 11° SSE 19:10:05 10° SE visible
19 Feb 9.5 20:55:52 10° SW 20:59:42 18° S 20:59:42 18° S visible
20 Feb 9.4 20:02:37 10° SSW 20:07:02 17° S 20:09:14 15° SSE visible
20 Feb 9.9 21:55:05 10° SW 21:56:07 13° SW 21:56:07 13° SW visible
21 Feb 9.6 19:09:38 10° SSW 19:13:24 15° SSE 19:17:16 10° SE visible
21 Feb 9.4 21:01:27 10° SW 21:05:38 19° S 21:05:38 19° S visible
22 Feb 9.4 20:07:57 10° SW 20:12:36 18° S 20:15:08 16° SSE visible
22 Feb 10.0 22:01:20 10° SW 22:02:01 12° SW 22:02:01 12° SW visible
23 Feb 9.5 19:14:38 10° SSW 19:18:58 17° S 19:23:26 10° SE visible
23 Feb 9.5 21:07:27 10° SW 21:11:32 17° S 21:11:32 17° S visible
24 Feb 9.5 20:13:44 10° SW 20:18:12 18° S 20:21:03 14° SSE visible
25 Feb 9.5 19:20:12 10° SW 19:24:34 18° S 19:29:05 10° SE visible
25 Feb 9.7 21:14:05 10° SW 21:17:27 14° SSW 21:17:28 14° SSW visible
